sat.trackr.live / text

‹ back to catalog

STARLINK-34030

NORAD 64030 · 2025-102J

PAYLOAD ACTIVE UNKNOWN

§ Identity

Operator
Country
US
Launch date
2025-05-16
Launch site
AFWTR
Launch vehicle
Mass (kg)
RCS (m²)

Purposes: comms

External: N2YO · Heavens-Above · Gunter

§ Orbital elements

Epoch: 2026-05-25T02:20:50.352000Z

Period
96.11 min
Inclination
70.0011°
Eccentricity
0.0003102
Mean motion
14.98335150 rev/d
Perigee alt
569.9 km
Apogee alt
574.2 km
Semi-major
6,950.2 km
B*
2.0097e-4
RAAN
281.9511°
Arg perigee
265.7479°
Mean anomaly
94.3326°
Rev number
5,740

§ Raw data

STARLINK-340301 64030U 25102J   26145.09780500  .00002306  00000+0  20097-3 0  99912 64030  70.0011 281.9511 0003102 265.7479  94.3326 14.98335150 57409

JSON: /api/v1/satellites/64030 · /tle

For live sub-satellite position, see the globe view (requires WebGL).

§ Visibility from observer

Set your observer location to see the next 7 days of passes ≥ 10°. The values pass through the URL so the page stays shareable.

No JS? Fill the form by hand. The geolocation button needs JavaScript.